Location: Unspecified
(0.0000°N, 0.0000°E)
Time: 07:52:58
(UTC+00:00)

Tiangong 1 - Pass Details

Date: 15 November 2017
Orbit: 285 x 308 km, 42.8° (Epoch: 20 November)

Event Time Altitude Azimuth Distance (km) Brightness Sun altitude
Rises 18:35:07 0° 203° (SSW) 1,994 5.4 -11.9°
Reaches altitude 10° 18:37:26 10° 183° (S) 1,162 3.8 -12.5°
Maximum altitude 18:39:21 18° 135° (SE) 815 2.5 -12.9°
Enters shadow 18:39:45 18° 122° (ESE) 833 2.4 -13.0°
